www.pogodaiklimat.ru

Погода и климат >> Архив погоды >> Россия >> Архангельская область >> Малые Кармакулы


АРХИВ ПОГОДЫ в Малых Кармакулах

Время (UTC), дата Ветер
(напр.,м/с)
 
Видим.   Явления Облачность Т
(С)
Тd
(С)
f
(%)
Тe
(С)
Тes
(С)
Комфортность P
(гПа)
Po
(гПа)
Тmin
(С)
Tmax
(С)
R
(мм)
R24
(мм)
S
(см)
12 12.01 В 13
{18}
10 км позёмок 10/4 600 м
[Sc Ac und]
-8.2 -9.2 92 -20 -20 982.6 980.8
15 12.01 В 14
{18}
10 км позёмок 10/3 600 м
[Sc Ac und]
-7.4 -8.7 90 -19 -19 982.4 980.6 -7.4
18 12.01 В 15
{21}
4000 м метель 9/6 570 м
[Sc Ac trans]
-9.0 -10.1 92 -21 -21 982.1 980.3
21 12.01 В 17
{24}
4000 м метель 6/3 600 м
[Sc Ac trans Ci fib]
-10.7 -12.0 90 -24 -24 981.8 980.0
00 13.01 В 17
{24}
2000 м слаб. ливневой снег {метель} 8/3 300 м
[Cb cap Ac trans Ci fib]
-10.9 -11.5 95 -24 -24 981.5 979.7
03 13.01 В 14
{20}
4000 м метель {ливн. осадки} 10/4 300 м
[Cu Sc Ac und]
-10.8 -11.4 95 -23 -23 981.7 979.9 -11.0 0.6
06 13.01 В 12
{18}
10 км позёмок {ливн. осадки} 9/4 600 м
[Sc Ac trans Ci fib]
-10.2 -11.5 90 -22 -22 981.9 980.1
09 13.01 В 14
{17}
10 км позёмок 8/3 600 м
[Sc Ac trans Ci fib]
-10.4 -11.7 90 -23 -23 981.8 980.0
12 13.01 В 13
{18}
10 км позёмок 9/4 600 м
[Sc Ac trans Ci fib]
-10.3 -11.6 90 -22 -22 981.8 980.0
15 13.01 В 11
{16}
10 км позёмок 10/6 630 м
[Sc Ac und]
-10.5 -11.8 90 -22 -22 982.2 980.4 -10.2
18 13.01 В 12
{17}
10 км позёмок 10/6 600 м
[Sc Ac und]
-9.7 -10.9 91 -21 -21 981.8 980.0
21 13.01 В 10
{18}
10 км позёмок 10/8 600 м
[Cu Sc Ac und]
-10.7 -12.0 90 -22 -22 982.8 981.1
00 14.01 В 13
{17}
10 км позёмок 10/4 600 м
[Sc Ac und]
-10.3 -11.6 90 -22 -22 983.1 981.3
03 14.01 В 10
{16}
10 км позёмок 10/3 600 м
[Sc Ac und]
-10.2 -11.5 90 -21 -21 983.8 982.0 -11.2
06 14.01 В 11
{17}
10 км позёмок 9/3 600 м
[Sc Ac trans]
-10.2 -11.5 90 -21 -21 984.2 982.4
09 14.01 В 12
{15}
10 км позёмок 6/1 600 м
[Sc Ac trans Ci fib]
-10.3 -11.6 90 -22 -22 985.3 983.5
12 14.01 В 11
{15}
10 км позёмок 8/3 600 м
[Sc Ac trans Ci fib]
-11.1 -12.4 90 -22 -22 986.8 985.0
15 14.01 В 7
{16}
20 км {метель} 9/4 600 м
[Sc Ac trans Ci fib]
-10.6 -12.6 85 -20 -20 988.3 986.5 -10.1
18 14.01 В 8
{11}
20 км {метель} 9/4 600 м
[Sc Ac trans]
-10.1 -11.4 90 -20 -20 989.3 987.5
21 14.01 ЮВ 6
{11}
20 км 8/3 600 м
[Sc Ac trans Ci fib]
-10.7 -12.7 85 -19 -19 990.6 988.8
00 15.01 В 6
{11}
20 км 6/3 600 м
[Sc Ac trans Ci fib]
-10.3 -12.3 85 -19 -19 991.9 990.1
03 15.01 ЮВ 6 20 км 6/4 600 м
[Sc Ac trans Ci fib]
-10.8 -12.8 85 -19 -19 992.6 990.8 -11.1
06 15.01 З 2 20 км 8/4 600 м
[Sc Ac trans Ci fib]
-10.5 -12.5 85 -15 -15 993.7 991.9
09 15.01 ЮВ 5 20 км 6/3 600 м
[Sc Ac trans Ci fib]
-10.9 -12.9 85 -19 -19 994.4 992.6
12 15.01 В 6 20 км 4/1 600 м
[Sc Ac trans Ci fib]
-11.5 -13.5 85 -20 -20 995.1 993.3
15 15.01 В 6 20 км 3/0
[Ci fib]
-12.1 -14.1 85 -21 -21 995.6 993.8 -10.3
18 15.01 В 6 20 км 3/0
[Ac trans Ci fib]
-12.8 -14.8 85 -22 -22 995.8 994.0
21 15.01 В 6 20 км 3/0
[Ac trans]
-12.5 -14.5 85 -21 -21 996.3 994.5
00 16.01 В 7 20 км 6/0
[Ac trans Ci fib]
-10.8 -12.8 85 -20 -20 996.6 994.8
03 16.01 В 8
{11}
10 км слаб. ливневой снег 10/4 300 м
[Cb cap Ac und]
-9.4 -11.5 85 -19 -19 995.8 994.0 -12.9 0.0
06 16.01 ЮВ 9
{13}
10 км слаб. ливневой снег 9/6 420 м
[Cb cap Ac trans]
-6.9 -8.9 86 -17 -17 995.2 993.4
09 16.01 Ю 11
{18}
20 км {ливн. осадки} 10/8 300 м
[Cu Sc Ac und]
-6.4 -8.0 88 -17 -17 994.9 993.1
12 16.01 Ю 12
{18}
4000 м слаб. ливневой снег {метель} 10/4 300 м
[Cb cap Ac und]
-6.1 -6.9 94 -17 -17 995.6 993.8
15 16.01 Ю 4
{15}
20 км {ливн. осадки, метель} 6/3 600 м
[Sc Ac trans Ci fib]
-7.0 -7.5 96 -14 -14 996.4 994.6 -6.0 0.4
18 16.01 ЮВ 3 10 км слаб. ливневой снег {метель} 8/4 300 м
[Cb cap Ac trans Ci fib]
-6.7 -7.2 96 -13 -13 997.7 995.9
21 16.01 Ю 4 10 км слаб. ливневой снег 9/6 450 м
[Cb cap Ac trans Ci fib]
-8.4 -9.0 95 -15 -15 998.8 997.0
00 17.01 ЮВ 4 20 км {ливн. осадки} 6/1 600 м
[Sc Ac trans Ci fib]
-8.3 -8.9 95 -15 -15 999.2 997.4
03 17.01 ЮВ 5 20 км 3/0
[Ac trans Ci fib]
-9.7 -10.5 94 -18 -18 999.1 997.3 -10.1 0.2
06 17.01 В 4 20 км 3/0
[Ac trans Ci fib]
-9.7 -10.9 91 -17 -17 998.5 996.7 -10.7
09 17.01 штиль 0 20 км 3/0
[Ac trans Ci fib]
-10.3 -11.6 90 -11 -11 997.5 995.7
12 17.01 В 8
{11}
20 км 3/0
[Ac trans Ci fib]
-9.9 -11.6 87 -20 -20 995.5 993.7
15 17.01 СЗ 1
{11}
20 км 4/0
[Ac trans Ci fib]
-10.1 -12.1 85 -12 -12 994.4 992.6 -9.3
18 17.01 В 2 20 км 1/0
[Ac trans]
-10.1 -12.9 80 -15 -15 993.3 991.5
21 17.01 СВ 2 20 км 1/0
[Ac trans]
-12.9 -15.6 80 -18 -18 992.8 991.0
00 18.01 штиль 0 20 км 3/0
[Ac trans Ci fib]
-14.5 -16.5 85 -15 -15 992.9 991.1
03 18.01 штиль 0 20 км 3/0
[Ac trans Ci fib]
-16.3 -18.2 85 -16 -16 992.8 990.9 -16.3
06 18.01 В 2 20 км 3/0
[Ci fib]
-17.9 -19.1 90 -23 -23 992.4 990.5 -17.9
09 18.01 ЮВ 1 20 км 4/0
[Ci fib]
-16.0 -17.3 90 -19 -19 992.8 990.9
12 18.01 ЮВ 2 20 км 3/0
[Ac trans Ci fib]
-15.4 -17.3 85 -20 -20 993.2 991.3
15 18.01 Ю 3 20 км 6/0
[Ac trans Ci fib]
-14.5 -15.1 95 -21 -21 993.2 991.4 -14.5
18 18.01 ЮВ 3 20 км {ливн. осадки} 6/1 600 м
[Sc Ac trans Ci fib]
-14.6 -15.2 95 -21 -21 993.1 991.3
21 18.01 Ю 3 20 км 9/0
[Ac trans Ci fib]
-12.5 -13.1 95 -19 -19 993.1 991.3
00 19.01 ЮВ 4 4000 м слаб. ливневой снег 10/3 300 м
[Cb cap Ac und]
-11.4 -12.0 95 -18 -18 992.6 990.8
03 19.01 ЮВ 5 10 км слаб. ливневой снег 10/3 300 м
[Cb cap Ac und]
-8.2 -9.2 92 -16 -16 990.8 989.0 -15.0 0.2
06 19.01 В 5 4000 м слаб. ливневой снег 9/4 300 м
[Cb cap Ac trans]
-7.1 -8.0 93 -15 -15 990.8 989.0
09 19.01 В 6 4000 м слаб. ливневой снег 9/6 420 м
[Cb cap Ac trans]
-7.1 -8.4 90 -15 -15 991.4 989.6

 

Местоположение метеостанции Малые Кармакулы (Архангельская область, Россия): широта 72.36 долгота 52.71 высота над уровнем моря 14 м.

В архиве по умолчанию представлена погода в Малых Кармакулах за последнюю неделю. Архивные данные за месяц целиком и за предыдущие месяцы, начиная с января 2011 года, Вы можете получить, выбрав интересующий диапазон дат из раскрывающегося списка и нажав кнопку "Ввод!".


*Определитесь, кто Вы:
робот инопланетянин человек

Внимание! Время в таблицах - всемирное. Для получения местного времени необходимо прибавить поправку, которая равна 3 ч.

Смотрите также архив погоды в соседних городах и на ближайших метеорологических станциях:

Погода в Имени Федорова (Ненецкий АО, Россия) (310 км)
Погода на Колгуевом Острове (Ненецкий АО, Россия) (341 км)
Погода в Ходоварихе (Ненецкий АО, Россия) (383 км)
Погода на Мысе Белый Нос (Ненецкий АО, Россия) (409 км)
Погода в Бугрино (Ненецкий АО, Россия) (415 км)
Погода в Амдерме (Ненецкий АО, Россия) (433 км)
Погода в Сенгейском Шаре (Ненецкий АО, Россия) (435 км)
Погода на Мысе Константиновском (Ненецкий АО, Россия) (436 км)
Погода в Варандее (Ненецкий АО, Россия) (440 км)
Погода в Нарьян-Маре (Ненецкий АО, Россия) (526 км)

Пояснения к столбцам:

Ветер - указаны скорость ветра в м/с - средняя за 10 мин, порывы в срок и между сроками (в фигурных скобках) и направление, откуда дует ветер: С - северный, СВ - северо-восточный, В - восточный, ЮВ - юго-восточный, Ю - южный, ЮЗ - юго-западный, З - западный, СЗ - северо-западный.
Видимость - горизонтальная дальность видимости в метрах или километрах. При видимости от 1 до 10 км при отсутствии осадков обычно наблюдается дымка, при ухудшении видимости до 1 км и менее - туман. В сухую погоду видимость может ухудшаться дымом, пылью или мглою.
Явления - указаны атмосферные явления, наблюдавшиеся в срок или в последний час перед сроком; фигурными скобками обозначены явления, наблюдавшиеся между сроками (за 1-3 часа до срока); квадратными скобками обозначены град или гололедные отложения с указанием их диаметра в мм.
Облачность - указаны через наклонную черту общая и нижняя облачность в баллах и высота нижней границы облаков в метрах; квадратными скобками обозначены формы облаков: Ci - перистые, Cs - перисто-слоистые, Cc - перисто-кучевые, Ac - высококучевые, As - высокослоистые, Sc - слоисто-кучевые, Ns - слоисто-дождевые, Cu - кучевые, Cb - кучево-дождевые. Подробнее классификацию облаков см. в Атласе облаков (PDF).
T - Температура воздуха - температура, измеренная на высоте 2 м над землей.
Td - Температура точки росы - температура, при понижении до которой содержащийся в воздухе водяной пар достигнет насыщения.
f - Относительная влажность воздуха - влажноcть воздуха, измеренная на высоте 2 м над землей.
Te - Эффективная температура - температура, которую ощущает одетый по сезону человек в тени. Характеристика душности погоды. При расчете учитывается влияние влажности воздуха и скорости ветра на теплоощущения человека.
Tes - Эффективная температура на солнце - температура, которую ощущает человек, с поправкой на солнечный нагрев. Характеристика знойности погоды. Зависит от высоты солнца над горизонтом, облачности и скорости ветра. Ночью, в пасмурную погоду, а также при ветре 12 м/с и более поправка равна нулю.
P - Атмосферное давление - приведенное к уровню моря атмосферное давление.
Po - Атмосферное давление - измеренное на уровне метеостанции атмосферное давление.
Tmin - Минимальная температура - минимум температуры воздуха на высоте 2 м над землей.
Tmax - Максимальная температура - максимум температуры воздуха на высоте 2 м над землей.
R - Количество осадков - Количество выпавших осадков за период времени, мм. При наведении курсора мыши на число - период времени, за который выпало указанное количество осадков.
R24 - Количество осадков - Количество выпавших осадков за 24 часа, мм.
S - Снежный покров - Высота снежного покрова, см. При наведении курсора мыши на число - состояние снежного покрова и степень покрытия местности в баллах.